Weather in Bunkovo

Russia / Ivanovo Oblast     57°03′55″N   40°42′22″E
temp.,
°C
wind,
m/s
gust,
m/s
humid.,
%
clouds,
%
prec.,
mm/h
press.,
hPa
HPBL,
m
6 august, fri
fri600:00+15se3586100 0.4 1016109
03:00+14e4108499 1.1 1014244
06:00+13ese3108987 0.7 1014266
09:00+18sse377690 0.7 1013469
12:00+24s4547100 0.0 10131435
15:00+21ssw5865100 0.1 1014628
18:00+17sse3890100 0.3 1014426
21:00+16ese3799100 5.8 1014259
7 august, sat
sat700:00+16e3998100 3.3 1014330
03:00+15e51397100 3.4 1013500
06:00+15e5109699 0.0 1013416
09:00+18ese4785100 0.4 1012498
12:00+23se466684 1.3 1012965
15:00+26sse4752100 1.8 10121292
18:00+22ese496770 0.0 1012257
21:00+18se2482100 0.0 101379
8 august, sun
sun800:00+21se2463100 0.0 101375
03:00+21sse4136097 0.0 1013436
06:00+20sse31263100 0.0 1013387
09:00+20sse3962100 0.0 1014306
12:00+27ssw474096 0.0 10141031
15:00+21sw2665100 0.0 1015163
18:00+21wsw2578100 0.1 1016224
21:00+18wsw22823 0.1 101617
9 august, mon
mon900:00+17wsw22830 0.0 101814
03:00+16w11890 0.0 101811
06:00+17wsw11850 0.0 101933
09:00+23wsw22615 0.0 1019602
12:00+26w24475 0.0 10191558
15:00+28w34405 0.0 10181989
18:00+27wnw23490 0.0 1018279
21:00+20n116832 0.0 101911
10 august, tue
tue1000:00+19ese1172100 0.0 101911
03:00+18sse2274100 0.0 102020
06:00+19s117493 0.0 102032
09:00+20s1171100 0.0 102016
12:00+20nnw1171100 0.0 102021
15:00+22ene0063100 0.1 1019130
18:00+19ssw3687100 0.4 1020219
21:00+18se2494100 0.8 101990